FENGYUN 1C DEB, 30302

Orbit data source: Space-Track

FENGYUN 1C DEB, 30302 is space debris in SSO originally from a launch on Mon, 10 May 1999 UTC launched from the Taiyaun Space Center, China (TSC). Fengyun 1C debris stems from the Chinese weather satellite Fengyun-1C, which was intentionally destroyed by a Chinese anti-satellite missile in 2007. This event dramatically increased the amount of space debris, with thousands of trackable fragments posing hazards to satellites and human spaceflight. The Fengyun 1C debris cloud has become a focal point in discussions about space sustainability and the need for international regulations to prevent the creation of new debris.

Loading next visibility...
Identifier
30302, 1999-025ZP
Orbit
SSO
Country
Flag of CNCN / PRC
Related business
Manufacturer
Unknown
Mission
Spacecraft
Bus & Motor
Unknown
Mass
Unknown
Launch date (UTC)
1999-05-10 (27 years ago)
Launch vehicle
Unknown
Launch site
Taiyaun Space Center, China (TSC)
Object type
Payload
Rocket body
Debris
Shape & HBR
Unknown shape, 0.1 m
Radar Cross Section
Small (<0.1 m²)

Expand to show TLE details & history
Last TLE update: 17 hours ago

TLE from 17 hours ago
0 FENGYUN 1C DEB
1 30302U 99025ZP  26123.70600465  .00004605  00000-0  23022-2 0  9991
2 30302  98.5526  30.2638 0105845  71.0609 290.2002 14.14331553980498
Epoch: 2026-05-03T16:56Z
TLE epoch observation values (Epoch: 2026-05-03T16:56:38.801Z)
Latitude
-0.00003°
Longitude
-85.50358°
Altitude
821.813 km
Speed
7.455 km/s
True Right ascension
02h 01m 03s
True Declination
0° 00' 00"
Sunlit
Object was in daylight at epoch
Visualization orbit readout
Latitude
Unknown
Longitude
Unknown
Altitude
Unknown
Speed
Unknown
Apparent Right ascension
Unknown
Apparent Declination
Unknown
Sunlit
N/A
Visualization observer readout
Local Sidereal Time
17:27:16
Azimuth
Unknown
Elevation
Unknown
Doppler factor
Unknown
Orbital elements
Apogee altitude
918.164 km
Perigee altitude
765.326 km
Semi-major axis
7,219.882 km
Eccentricity
0.01058
Inclination
98.5526°
RAAN
30.2638°
Arg. of periapsis
71.0609°
True anomaly
289.05676°
Mean anomaly
290.2002°
Eccentric anomaly
289.62899°
Mean motion
3.53792 °/min
Orbital period
101.75 mins
BSTAR
0.0023022
Loading maneuver chart data...
Computing Atmospheric mass density...

Documentation

Showing up to 5 results
|